This is the latest recevied weather packets stored in our database for station/object N6GPM. If no packets are shown the sender has not sent any weather packets the latest 10 day(s).
| Time | Temp. | Humidity | Pressure | Rain* | Wind** | Luminosity | Snow |
|---|---|---|---|---|---|---|---|
| 1788054953 | 32.22° C | 31% | 1014.9 hPa | 0 mm | - | 26 W/m² | - |
| 1788054649 | 32.22° C | 31% | 1014.9 hPa | 0 mm | - | 32 W/m² | - |
| 1788054344 | 32.78° C | 30% | 1015 hPa | 0 mm | - | 38 W/m² | - |
| 1788054040 | 32.78° C | 29% | 1014.7 hPa | 0 mm | - | 46 W/m² | - |
| 1788053735 | 32.78° C | 29% | 1014.9 hPa | 0 mm | - | 54 W/m² | - |
| 1788053431 | 32.78° C | 30% | 1014.9 hPa | 0 mm | - | 63 W/m² | - |
| 1788053130 | 33.33° C | 30% | 1015.3 hPa | 0 mm | - | 74 W/m² | - |
| 1788052827 | 32.78° C | 29% | 1015 hPa | 0 mm | - | 85 W/m² | - |
| 1788052527 | 33.33° C | 29% | 1014.8 hPa | 0 mm | - | 97 W/m² | - |
| 1788052222 | 33.33° C | 30% | 1015 hPa | 0 mm | - | 110 W/m² | - |
| 1788051917 | 33.89° C | 30% | 1014.8 hPa | 0 mm | - | 125 W/m² | - |
| 1788051612 | 33.89° C | 29% | 1015 hPa | 0 mm | - | 140 W/m² | - |
| 1788051310 | 33.89° C | 30% | 1014.9 hPa | 0 mm | - | 157 W/m² | - |
| 1788051009 | 33.89° C | 30% | 1014.8 hPa | 0 mm | - | 175 W/m² | - |
| 1788050704 | 33.89° C | 27% | 1014.8 hPa | 0 mm | - | 193 W/m² | - |
| 1788050404 | 34.44° C | 28% | 1014.9 hPa | 0 mm | - | 213 W/m² | - |
| 1788050098 | 34.44° C | 27% | 1014.9 hPa | 0 mm | - | 233 W/m² | - |
| 1788049796 | 34.44° C | 26% | 1014.7 hPa | 0 mm | - | 250 W/m² | - |
| 1788049491 | 34.44° C | 27% | 1015 hPa | 0 mm | - | 270 W/m² | - |
| 1788049187 | 34.44° C | 26% | 1014.8 hPa | 0 mm | - | 291 W/m² | - |
| 1788048882 | 34.44° C | 24% | 1014.8 hPa | 0 mm | - | 315 W/m² | - |
| 1788048577 | 35° C | 25% | 1014.7 hPa | 0 mm | - | 338 W/m² | - |
| 1788048275 | 35° C | 25% | 1014.8 hPa | 0 mm | - | 358 W/m² | - |
| 1788047972 | 35° C | 26% | 1014.9 hPa | 0 mm | - | 380 W/m² | - |
| 1788047666 | 35° C | 24% | 1014.7 hPa | 0 mm | - | 398 W/m² | - |
* Rain latest hour (hover to see other rain measurements)
** Current wind speed in m/s (hover to see current wind gust speed)